Regional Weather Roundup
Issued by NWS Upton, NY

Current Version | Previous Version | Text Only | Print | Product List | Glossary On
Versions: 1 2 3 4 5 6 7 8 9 10 11 12 13 14 15 16 17 18 19 20 21 22 23 24 25 26 27
000
ASUS41 KOKX 280308
RWROKX

REGIONAL WEATHER ROUNDUP
NATIONAL WEATHER SERVICE NEW YORK NY
1100 PM EDT TUE JUN 27 2017

NOTE: "FAIR" INDICATES FEW OR NO CLOUDS BELOW 12,000 FEET WITH NO
SIGNIFICANT WEATHER AND/OR OBSTRUCTIONS TO VISIBILITY.

NYZ071-072-176-178-NJZ106-104-280400-
NEW YORK CITY METRO AREA

CITY           SKY/WX    TMP DP  RH WIND       PRES   REMARKS
Central Park   CLEAR     69  50  50 VRB3      30.02R
Bronx Bot Gard   N/A     64  48  55 SE3       30.02R
LaGuardia APRT PTCLDY    70  54  56 N8        29.99R
Kennedy INTL   PTCLDY    72  49  44 W12       30.00R
Breezy Point     N/A     68 N/A N/A W3          N/A
Newark/Liberty PTCLDY    68  50  52 NW6       29.99R
Teterboro      CLEAR     66  51  58 N6        29.98R
$$

NYZ177-179-078>081-280400-
LONG ISLAND NEW YORK

CITY           SKY/WX    TMP DP  RH WIND       PRES   REMARKS
Jones Beach      N/A     66 N/A N/A SW5         N/A
Matinecock PT  NOT AVBL
Farmingdale    NOT AVBL
MacArthur/ISP  MOCLDY    66  58  75 W5        29.98R
Shirley        PTCLDY    61  58  90 CALM      29.99R
Mt Sinai Harb    N/A    N/A N/A N/A NW5         N/A
Westhampton    CLOUDY    56  52  86 CALM      30.01R
East Hampton   FAIR      59  55  87 CALM      29.98R
Montauk          N/A     67  58  72 NW7       29.99R
$$

NYZ052-065-067-280400-
HUDSON VALLEY

CITY           SKY/WX    TMP DP  RH WIND       PRES   REMARKS
White Plains   CLEAR     63  51  65 CALM      29.99R
Larchmont Harb   N/A     66 N/A N/A W1          N/A
Croton O-T Hud   N/A     64 N/A N/A NE1         N/A
Newburgh       CLEAR     57  52  82 CALM      30.01R
Montgomery     CLEAR     55  51  86 SW3       30.00R
Poughkeepsie   CLEAR     55  52  89 CALM      29.98S
Albany         PTCLDY    53  49  86 W6        29.98R
$$

NJZ001-105-106-008-010-013-015-019>022-104-280400-
NEW JERSEY

CITY           SKY/WX    TMP DP  RH WIND       PRES   REMARKS
Newark/Liberty PTCLDY    68  50  52 NW6       29.99R
Teterboro      CLEAR     66  51  58 N6        29.98R
Caldwell       CLEAR     64  52  64 CALM      30.01R
Somerville     CLEAR     59  57  93 CALM      29.99R
Linden         MOCLDY    67  50  54 CALM      30.00R
Perth Amboy      N/A     68 N/A N/A S1          N/A
Sussex         CLEAR     55  52  89 CALM      30.02R
Andover          N/A     56  54  93 CALM      30.02R
Trenton        CLEAR     66  50  56 NW5       30.01R
Millville      PTCLDY    62  57  83 W3        30.03R
Atlantic City  CLOUDY    69  53  56 W7        30.02R
Wrightstown    PTCLDY    67  50  54 NW7       29.99R
Toms River     PTCLDY    59  53  80 CALM      30.02R
Belmar         CLEAR     66  55  67 CALM      30.02R
$$

PAZ047>061-062-071-280400-
EASTERN PENNSYLVANIA

CITY           SKY/WX    TMP DP  RH WIND       PRES   REMARKS
Philadelphia   PTCLDY    71  47  42 NW10G21   30.03R
Allentown      CLEAR     64  46  52 W8        30.03R
Scranton       CLOUDY    62  48  60 SW5       30.04R
$$

CTZ002-004>006-009-010-012-RIZ004-006-007-MAZ004-011-015-280400-
SOUTHERN NEW ENGLAND
 IN CT

CITY           SKY/WX    TMP DP  RH WIND       PRES   REMARKS
Bradley INTL   PTCLDY    58  51  78 W3        29.99R
Hartford       CLEAR     58  56  93 CALM      29.98R
Danbury        CLEAR     56  51  84 CALM      30.01
Wtrbury/Oxford CLEAR     55  46  71 CALM      30.01R
Bridgeport     CLEAR     67  52  58 CALM      29.99R
Meriden        CLEAR     54  54 100 CALM      29.99R
New Haven      CLEAR     62  50  64 N6        29.99R
Chester        FAIR      63  48  59 VRB5      29.99S
Groton         CLOUDY    64  56  75 NW5       29.97R
Wilimantic     PTCLDY    57  55  93 CALM      30.00R FOG

 IN RI

CITY           SKY/WX    TMP DP  RH WIND       PRES   REMARKS
Providence     CLOUDY    63  54  72 W6        29.98R
Block Island   CLOUDY    64  58  80 W9        29.99R
Westerly       CLOUDY    64  58  80 CALM      29.98R
 IN MA

CITY           SKY/WX    TMP DP  RH WIND       PRES   REMARKS
Boston         MOCLDY    61  55  81 W6        29.96R
Worcester      CLEAR     54  50  86 W9        29.99R
Westfield      CLEAR     53  52  96 CALM        N/A
Provincetown   CLOUDY    61  54  77 N3        29.98R
Nantucket      PTCLDY    64  63  96 SW8       29.97S
$$

ANZ330-335-338-340-345-350-353-355-280400-
COASTAL MARINE OBSERVATIONS


STATION/POSITION TIME  SKY/WX   TEMP    WIND        PRES    VSBY  WAVE
                                AIR SEA DIR/SP/G                  HT/PER
                 (UTC)          (F)     (DEG/KT/KT) (MB)    (MI)  (FT/S)
NY HARB ENTRANCE 0150            68 69  230/  6/  6 1014.9          1/ 8
20 S FIRE ISLAND 0250            70 70  260/ 10/ 12 1014.8          2/ 6
GREAT SOUTH BAY  0215            72 75  280/  8/  8   N/A
23 SSW MONTAUK P 0150            67 66              1015.1          2/ 4
15 E BARNEGAT LI 0230               66                N/A           2/ 4
HUDSON CANYON    0250            70 68  240/  8/ 10 1015.0          2/ 4
KINGS POINT      0230            68 68  360/  8/  9 1015.2
EXECUTION ROCKS  0245            67     310/  4/  4   N/A
CENTRAL LI SOUND 0215            70     320/ 12/ 16   N/A           1
EASTERN LI SOUND NOT AVBL
ROBBINS REEF     0236                   300/ 10/ 12 1015.9
$$


>>>>>>>>>>>>>>>>>>>>>>>>>>>> KEY <<<<<<<<<<<<<<<<<<<<<<<<<<<
>                                                          <
>     SKY/WX - Sky Condition/Present Weather               <
>     TMP    - Temperature in Fahrenheit                   <
>     DP     - Dew Point in Fahrenheit                     <
>     RH     - Relative Humidity in Percent                <
>     WIND   - Direction (from) and Speed in MPH           <
>     PRES   - Mean Sea Level Pressure (inches of Hg)      <
>     WCI    - Wind Chill Index                            <
>     VSB    - VISIBILITY IN MILES                         <
>     HX     - HEAT INDEX                                  <
>     TC     - TEMPERATURE IN CELSIUS                      <
>     VRB    - VARIABLE WIND DIRECTION                     <
>                                                          <
>>>>>>>>>>>>>>>>>>>>>>>>>>>> KEY <<<<<<<<<<<<<<<<<<<<<<<<<<<




USA.gov is the U.S. government's official web portal to all federal, state and local government web resources and services.